Simultaneous Nadir Overpasses (SNOs) Predictions

Prediction of SNOs between METOP-B and TERRA Satellite Orbit:

Table of predicted SNOs for the next 14.0 days since TLE Epoch: 6/2/2017
Index Date (METOP-B) Time (METOP-B) Lat,Lon (METOP-B) SZA (METOP-B ) Date (TERRA) Time (TERRA) Lat,Lon (TERRA) SZA (TERRA ) Distance(km) Time Diff (sec)
1 06/04/2017 05:01:43 -81.33, -27.81 118.11 06/04/2017 05:01:59 -81.33, -27.76 118.10 1.02 16
2 06/04/2017 05:52:23 81.33, 139.80 61.92 06/04/2017 05:51:25 81.33, 139.97 61.91 2.88 58
3 06/07/2017 00:36:03 -81.34, 39.00 118.37 06/07/2017 00:36:14 -81.34, 38.91 118.38 1.65 11
4 06/07/2017 01:26:43 81.34,-153.38 61.66 06/07/2017 01:25:40 81.34,-153.39 61.63 0.37 63
5 06/09/2017 20:10:25 -81.33, 105.02 118.68 06/09/2017 20:10:30 -81.33, 105.15 118.66 2.18 5
6 06/09/2017 21:01:04 81.34, -86.98 61.40 06/09/2017 20:59:56 81.33, -87.17 61.34 3.30 68
7 06/12/2017 14:54:04 81.33, 4.14 61.12 06/12/2017 14:55:17 81.34, 4.08 61.15 1.11 73
8 06/12/2017 15:44:44 -81.34, 171.81 118.84 06/12/2017 15:44:44 -81.34, 171.73 118.85 1.30 0
9 06/12/2017 16:35:16 81.36, -17.42 61.59 06/12/2017 16:34:02 81.49, -17.50 61.61 13.82 74
10 06/15/2017 10:28:26 81.33, 70.12 60.91 06/15/2017 10:29:33 81.32, 70.22 60.95 1.74 67




NCC Satellite Simultaneous Nadir Overpasses (SNOs) Prediction Service
